Regional Weather Roundup
Issued by NWS Jackson, KY

Home | Current Version | Previous Version | Text Only | Print | Product List | Glossary On
Versions: 1 2 3 4 5 6 7 8 9 10 11 12 13 14 15 16 17 18 19 20 21 22 23 24 25 26 27 28 29 30 31 32 33 34 35 36 37 38 39 40 41 42 43 44 45 46 47 48 49 50
000
ASUS43 KJKL 012210
RWRJKL

EAST KENTUCKY HOURLY WEATHER ROUNDUP
NATIONAL WEATHER SERVICE JACKSON KY
600 PM EDT WED JUL 01 2015

NOTE: "FAIR" INDICATES FEW OR NO CLOUDS BELOW 12,000 FEET WITH
NO SIGNIFICANT WEATHER AND/OR OBSTRUCTIONS TO VISIBILITY.

* THESE REPORTS ARE NOT UNDER NWS QUALITY CONTROL AND MAY NOT
  REPORT WEATHER SUCH AS PRECIPITATION AND FOG.

KYZ079-080-083-085-087-088-110-112-115-119-120-012300
...EASTERN KENTUCKY...

CITY           SKY/WX    TMP DP  RH WIND       PRES   REMARKS
JACKSON        CLOUDY    73  67  81 CALM      29.96S
LONDON         CLOUDY    71  65  81 S9        29.96F
SOMERSET*      CLOUDY    70  70 100 E5        29.94F
MONTICELLO*    CLOUDY    78  71  79 S9        29.95F
MIDDLESBORO*   CLOUDY    72  69  88 CALM      30.00S
HARLAN APT*      N/A     70  70 100 W5        30.01S
HAZARD APT*    MOCLDY    73  68  83 SW8       29.96
BLACK MTN*       N/A     63  63 100 S6          N/A
PIKEVILLE APT* RAIN      68  66  94 CALM      29.96S
BIG SANDY*     MOCLDY    73  68  85 SW5       29.94F
MOREHEAD APT*  PTCLDY    77  66  69 CALM      29.95S
$$

KYZ035-036-041-042-044-050-067-078-099-012300
...CENTRAL KENTUCKY...

CITY           SKY/WX    TMP DP  RH WIND       PRES   REMARKS
MT STERLING*   LGT RAIN  68  68 100 W3        29.95S
FLEMING/MASON* SUNNY     77  63  61 NW3       29.93S
DANVILLE*      CLOUDY    73  68  83 W3        29.94F
RICHMOND*      CLOUDY    72  66  83 CALM      29.94S
LEXINGTON      CLOUDY    73  68  84 NE5       29.93S HAZE
FRANKFORT      CLOUDY    71  65  81 CALM      29.90F HAZE
$$

KYZ091>093-OHZ055-061-077-WVZ005-015-034-035-042-012300
...SOUTHERN OHIO/WEST VIRGINIA...

CITY           SKY/WX    TMP DP  RH WIND       PRES   REMARKS
COVINGTON      CLOUDY    78  63  59 CALM      29.90F
COLUMBUS       MOSUNNY   76  58  53 W12       29.90S
DAYTON         PTSUNNY   77  59  53 NW6       29.91F
WILMINGTON     MOSUNNY   77  55  46 W5        29.91F
HUNTINGTON     PTSUNNY   76  65  68 W3        29.91S
CHARLESTON     MOSUNNY   78  64  61 W3        29.91F
PINEVILLE*     CLOUDY    73  70  91 MISG      30.00S
BECKLEY        MOSUNNY   75  60  59 VRB5      29.98F
BLUEFIELD      CLOUDY    75  62  64 W7        30.02S
$$

VAZ002-007-008-TNZ017-027-036-066-071-012300
...SOUTHWEST VIRGINIA/EAST TENNESSEE...

CITY           SKY/WX    TMP DP  RH WIND       PRES   REMARKS
WISE*          LGT RAIN  70  68  94 SW8       30.05R
JONESVILLE*      N/A    N/A N/A N/A MISG        N/A
ABINGDON*      LGT RAIN  74  69  85 W10G17    30.02R
BRISTOL        RAIN      72  69  90 SW14      30.01R FOG
KNOXVILLE      CLOUDY    73  68  84 S14       30.00S
OAK RIDGE      LGT RAIN  77  70  79 VRB6      30.00F
CROSSVILLE     LGT RAIN  68  63  84 S5        30.01F
NASHVILLE      CLOUDY    73  70  90 S12       29.95F
$$

...KEY TO REMARKS...
VSB - VISIBILITY IN MILES
WCI - WIND CHILL INDEX
HX  - HEAT INDEX

$$



USA.gov is the U.S. government's official web portal to all federal, state and local government web resources and services.